Orange City, IA

12:33 AM CST on December 10, 2016 (GMT -0600)
Orange City Municipal

Weather History for KORC - April, 2013

Change the Weather History Date:

Friday, April 19, 2013

  Actual Average Record
Temperature  
Mean Temperature 30 °F -  
Max Temperature 37 °F 59 °F 84 °F (1948)
Min Temperature 23 °F 39 °F 23 °F (2013)
Degree Days  
Heating Degree Days 35    
Moisture  
Dew Point 22 °F    
Average Humidity 71    
Maximum Humidity 93    
Minimum Humidity 48    
Precipitation  
Precipitation 0.00 in - - ()
Sea Level Pressure  
Sea Level Pressure 29.89 in    
Wind  
Wind Speed 18 mph (NW)    
Max Wind Speed 24 mph    
Max Gust Speed 32 mph    
Visibility 10 miles    
Events Snow    
Averages and records for this station are not official NWS values.
T = Trace of Precipitation, MM = Missing Value Source: NWS Daily Summary

Daily Weather History Graph

Daily Weather History Graph

Search for Another Location

Airport or City:

Trip Planner

Search our weather history database for the weather conditions in past years. The results will help you decide how hot, cold, wet, or windy it might be!

Date:

Astronomy

Apr. 19, 2013 Rise Set
Actual Time 6:35 AM CDT 8:11 PM CDT
Civil Twilight 6:05 AM CDT 8:41 PM CDT
Nautical Twilight 5:29 AM CDT 9:18 PM CDT
Astronomical Twilight 4:50 AM CDT 9:56 PM CDT
Moon 1:48 PM CDT (4/19) 3:01 AM CDT (4/19)
Length of Visible Light 14h 36m
Length of Day
13h 36m
First Quarter, 62% of the Moon is Illuminated
Apr 19
First Quarter
Apr 25
Full
May 2
Last Quarter
May 9
New
May 17
First Quarter

Hourly Weather History & Observations

Time (CDT) Temp. Windchill Dew Point Humidity Pressure Visibility Wind Dir Wind Speed Gust Speed Precip Events Conditions
12:15 AM 28.4 °F 14.1 °F 26.6 °F 93% 29.77 in 1.2 mi NW 24.2 mph 32.2 mph N/A Snow Light Snow
12:35 AM 28.4 °F 15.1 °F 24.8 °F 86% 29.77 in 2.5 mi NW 20.7 mph 32.2 mph N/A Snow Light Snow
12:55 AM 28.4 °F 14.4 °F 23.0 °F 80% 29.77 in 5.0 mi NW 23.0 mph 28.8 mph N/A   Haze
1:15 AM 28.4 °F 14.7 °F 23.0 °F 80% 29.76 in 5.0 mi NW 21.9 mph 31.1 mph N/A   Haze
1:35 AM 26.6 °F 12.4 °F 21.2 °F 80% 29.76 in 5.0 mi NW 21.9 mph 26.5 mph N/A   Haze
1:55 AM 26.6 °F 12.7 °F 21.2 °F 80% 29.75 in 10.0 mi NW 20.7 mph 25.3 mph N/A   Clear
2:15 AM 26.6 °F 13.8 °F 21.2 °F 80% 29.75 in 10.0 mi NW 17.3 mph - N/A   Clear
2:35 AM 26.6 °F 13.4 °F 21.2 °F 80% 29.75 in 10.0 mi NW 18.4 mph 24.2 mph N/A   Clear
2:55 AM 24.8 °F 11.1 °F 21.2 °F 86% 29.75 in 10.0 mi NW 18.4 mph - N/A   Clear
3:15 AM 24.8 °F 11.1 °F 21.2 °F 86% 29.75 in 10.0 mi NW 18.4 mph - N/A   Clear
3:35 AM 24.8 °F 11.1 °F 19.4 °F 80% 29.75 in 10.0 mi NW 18.4 mph - N/A   Clear
3:55 AM 24.8 °F 10.7 °F 19.4 °F 80% 29.75 in 10.0 mi NW 19.6 mph 24.2 mph N/A   Clear
4:15 AM 24.8 °F 11.1 °F 19.4 °F 80% 29.75 in 10.0 mi NW 18.4 mph 25.3 mph N/A   Clear
4:35 AM 24.8 °F 11.1 °F 19.4 °F 80% 29.76 in 10.0 mi WNW 18.4 mph - N/A   Clear
4:55 AM 24.8 °F 11.9 °F 19.4 °F 80% 29.76 in 10.0 mi WNW 16.1 mph - N/A   Clear
5:15 AM 23.0 °F 10.1 °F 19.4 °F 86% 29.76 in 10.0 mi WNW 15.0 mph - N/A   Clear
5:55 AM 23.0 °F 9.2 °F 17.6 °F 80% 29.77 in 10.0 mi NW 17.3 mph - N/A   Clear
6:15 AM 23.0 °F 9.2 °F 17.6 °F 80% 29.77 in 10.0 mi NW 17.3 mph - N/A   Clear
6:35 AM 23.0 °F 8.0 °F 19.4 °F 86% 29.78 in 10.0 mi WNW 20.7 mph - N/A   Clear
6:55 AM 23.0 °F 8.3 °F 17.6 °F 80% 29.79 in 10.0 mi WNW 19.6 mph - N/A   Clear
7:15 AM 23.0 °F 8.7 °F 17.6 °F 80% 29.79 in 10.0 mi WNW 18.4 mph - N/A   Clear
7:35 AM 23.0 °F 8.7 °F 17.6 °F 80% 29.79 in 10.0 mi WNW 18.4 mph - N/A   Clear
7:55 AM 24.8 °F 10.7 °F 19.4 °F 80% 29.80 in 10.0 mi WNW 19.6 mph - N/A   Clear
8:15 AM 24.8 °F 11.5 °F 19.4 °F 80% 29.80 in 10.0 mi WNW 17.3 mph - N/A   Clear
8:35 AM 26.6 °F 13.8 °F 19.4 °F 74% 29.81 in 10.0 mi WNW 17.3 mph - N/A   Clear
8:55 AM 26.6 °F 13.8 °F 19.4 °F 74% 29.81 in 10.0 mi WNW 17.3 mph - N/A   Clear
9:15 AM 26.6 °F 14.3 °F 21.2 °F 80% 29.82 in 10.0 mi WNW 16.1 mph - N/A   Clear
9:55 AM 28.4 °F 16.2 °F 21.2 °F 74% 29.83 in 10.0 mi WNW 17.3 mph - N/A   Clear
10:15 AM 28.4 °F 15.4 °F 21.2 °F 74% 29.83 in 10.0 mi WNW 19.6 mph - N/A   Clear
10:35 AM 28.4 °F 15.4 °F 21.2 °F 74% 29.84 in 10.0 mi WNW 19.6 mph - N/A   Clear
10:55 AM 30.2 °F 17.8 °F 23.0 °F 75% 29.84 in 10.0 mi WNW 19.6 mph - N/A   Clear
11:15 AM 30.2 °F 17.1 °F 24.8 °F 80% 29.85 in 10.0 mi WNW 21.9 mph - N/A   Clear
11:35 AM 30.2 °F 17.8 °F 24.8 °F 80% 29.86 in 10.0 mi WNW 19.6 mph - N/A   Clear
11:55 AM 32.0 °F 20.5 °F 24.8 °F 75% 29.87 in 10.0 mi WNW 18.4 mph - N/A   Clear
12:15 PM 33.8 °F 22.2 °F 24.8 °F 70% 29.87 in 10.0 mi WNW 20.7 mph - N/A   Clear
12:35 PM 33.8 °F 21.6 °F 24.8 °F 70% 29.88 in 10.0 mi WNW 23.0 mph - N/A   Clear
12:55 PM 33.8 °F 21.6 °F 24.8 °F 70% 29.88 in 10.0 mi WNW 23.0 mph - N/A   Clear
1:15 PM 33.8 °F 22.5 °F 24.8 °F 70% 29.89 in 10.0 mi WNW 19.6 mph - N/A   Clear
1:35 PM 33.8 °F 21.3 °F 24.8 °F 70% 29.89 in 10.0 mi NW 24.2 mph 27.6 mph N/A   Clear
1:55 PM 35.6 °F 24.0 °F 23.0 °F 60% 29.90 in 10.0 mi NW 23.0 mph 29.9 mph N/A   Clear
2:15 PM 35.6 °F 25.2 °F 23.0 °F 60% 29.90 in 10.0 mi NW 18.4 mph 26.5 mph N/A   Clear
2:35 PM 35.6 °F 24.0 °F 21.2 °F 56% 29.91 in 10.0 mi NW 23.0 mph 29.9 mph N/A   Clear
2:55 PM 35.6 °F 25.5 °F 21.2 °F 56% 29.92 in 10.0 mi NNW 17.3 mph 23.0 mph N/A   Clear
3:15 PM 35.6 °F 27.1 °F 21.2 °F 56% 29.92 in 10.0 mi NNW 12.7 mph 23.0 mph N/A   Clear
3:35 PM 35.6 °F 25.2 °F 23.0 °F 60% 29.93 in 10.0 mi NW 18.4 mph 25.3 mph N/A   Clear
3:55 PM 37.4 °F 27.8 °F 23.0 °F 56% 29.93 in 10.0 mi NW 17.3 mph 24.2 mph N/A   Clear
4:15 PM 37.4 °F 26.9 °F 23.0 °F 56% 29.94 in 10.0 mi NW 20.7 mph 24.2 mph N/A   Clear
4:35 PM 37.4 °F 27.8 °F 23.0 °F 56% 29.95 in 10.0 mi NW 17.3 mph 24.2 mph N/A   Scattered Clouds
4:55 PM 37.4 °F 28.5 °F 23.0 °F 56% 29.95 in 10.0 mi NW 15.0 mph - N/A   Scattered Clouds
5:15 PM 37.4 °F 28.2 °F 21.2 °F 52% 29.96 in 10.0 mi NW 16.1 mph 23.0 mph N/A   Scattered Clouds
5:35 PM 37.4 °F 28.2 °F 23.0 °F 56% 29.97 in 10.0 mi NW 16.1 mph 20.7 mph N/A   Clear
5:55 PM 37.4 °F 28.2 °F 23.0 °F 56% 29.97 in 10.0 mi NW 16.1 mph 23.0 mph N/A   Clear
6:15 PM 37.4 °F 28.5 °F 19.4 °F 48% 29.97 in 10.0 mi NNW 15.0 mph 20.7 mph N/A   Clear
6:35 PM 35.6 °F 26.2 °F 21.2 °F 56% 29.98 in 10.0 mi NNW 15.0 mph 21.9 mph N/A   Clear
6:55 PM 35.6 °F 27.1 °F 21.2 °F 56% 29.99 in 10.0 mi NNW 12.7 mph 19.6 mph N/A   Clear
7:15 PM 35.6 °F 27.5 °F 21.2 °F 56% 29.99 in 10.0 mi NNW 11.5 mph - N/A   Clear
7:35 PM 35.6 °F 28.0 °F 19.4 °F 52% 30.00 in 10.0 mi NNW 10.4 mph 19.6 mph N/A   Clear
7:55 PM 33.8 °F 26.4 °F 21.2 °F 60% 30.01 in 10.0 mi NNW 9.2 mph - N/A   Clear
8:15 PM 33.8 °F 27.0 °F 21.2 °F 60% 30.02 in 10.0 mi NNW 8.1 mph - N/A   Clear
8:35 PM 33.8 °F 27.0 °F 21.2 °F 60% 30.03 in 10.0 mi NNW 8.1 mph - N/A   Clear
8:55 PM 32.0 °F 25.6 °F 21.2 °F 64% 30.04 in 10.0 mi NNW 6.9 mph - N/A   Clear
9:15 PM 30.2 °F 23.4 °F 21.2 °F 69% 30.05 in 10.0 mi NNW 6.9 mph - N/A   Clear
9:35 PM 30.2 °F 24.3 °F 21.2 °F 69% 30.06 in 10.0 mi NNW 5.8 mph - N/A   Clear
9:55 PM 30.2 °F 23.4 °F 21.2 °F 69% 30.07 in 10.0 mi NNW 6.9 mph - N/A   Clear
10:15 PM 30.2 °F 23.4 °F 21.2 °F 69% 30.07 in 10.0 mi NW 6.9 mph - N/A   Clear
10:35 PM 28.4 °F 21.2 °F 23.0 °F 80% 30.07 in 10.0 mi NW 6.9 mph - N/A   Clear
10:55 PM 28.4 °F 21.2 °F 23.0 °F 80% 30.07 in 10.0 mi NW 6.9 mph - N/A   Clear
11:15 PM 28.4 °F 21.2 °F 21.2 °F 74% 30.08 in 10.0 mi NW 6.9 mph - N/A   Clear
11:35 PM 28.4 °F 23.3 °F 23.0 °F 80% 30.08 in 10.0 mi NW 4.6 mph - N/A   Clear
11:55 PM 28.4 °F 22.2 °F 23.0 °F 80% 30.08 in 10.0 mi NNW 5.8 mph - N/A   Clear